Location: Chervonnoye
(48.6000°N, 34.4000°E)
Time: 06:53:06
(UTC+00:00)

KAITUO 1B - Pass Details

Date: 03 December 2021
Orbit: 486 x 507 km, 97.4° (Epoch: 18 January)

Event Time Altitude Azimuth Distance (km) Brightness Sun altitude
Rises 03:32:05 0° 24° (NNE) 2,633 ? -16.4°
Reaches altitude 10° 03:34:29 10° 38° (NE) 1,739 ? -16.0°
Maximum altitude 03:37:35 24° 94° (E) 1,084 ? -15.5°
Drops below altitude 10° 03:40:39 10° 150° (SSE) 1,717 ? -15.1°
Sets 03:43:00 0° 164° (SSE) 2,592 ? -14.7°
